GALAXY 13 (HORIZONS-1)

Last updated on Mon Oct 20 2025 00:02:45 GMT+0000 (Coordinated Universal Time)

1 27954U 03044A 25292.32590038 .00000131 00000+0 00000+0 0 9991 2 27954 0.7912 87.1781 0002233 126.7520 141.4807 1.00274058 44159
UTC large
Height (km)
Speed (km/s)
/
Latitude / Longitude
Inclination (degrees)
Orbital Period (minutes)
Azimuth
Elevation
Range (km)
Doppler Factor

Next 0 passes for location: London (51.5072 / 0.1276)

Sorry there are no passes over London.